Regional Weather Roundup
Issued by NWS

Home | Current Version | Previous Version | Text Only | Print | Product List | Glossary On
Versions: 1 2 3 4 5 6 7 8 9 10 11 12 13 14 15 16 17 18 19 20 21 22 23 24 25 26 27
000
ASUS42 KKEY 010310
RWRKEY

FLORIDA REGIONAL WEATHER ROUNDUP FOR THE FLORIDA KEYS
NATIONAL WEATHER SERVICE KEY WEST FLORIDA
1100 PM EDT SUN APR 30 2017

...SOUTH FLORIDA AND THE KEYS...

CITY           SKY/WX    TMP DP  RH WIND       PRES   REMARKS
FORT MYERS     CLEAR     78  70  76 SE13      30.08R
SW REGIONAL AP CLEAR     77  68  73 E10       30.09R
NAPLES         MOCLDY    79  70  74 E12       30.08R
MIAMI          PTCLDY    80  71  74 E21G30    30.10R
WEST KENDALL   CLOUDY    79  72  79 E16G28    30.09R
HOMESTEAD      PTCLDY    78  74  86 E15G26    30.08S
MARATHON       PTCLDY    81  74  79 SE12G22   30.07R
BOCA CHICA NAS CLOUDY   N/A N/A N/A SE21G28   30.07R
KEY WEST INTL  PTCLDY    80  73  79 SE22G29   30.07R

...INTERNATIONAL WEATHER...

CITY           SKY/WX    TMP DP  RH WIND       PRES   REMARKS
NASSAU BAHAMAS NOT AVBL
CANCUN MEXICO  PTCLDY    81  79  94 E14       29.93R
COZUMEL MEXICO PTCLDY    81  77  89 SE12      29.91R

ADJACENT COASTAL WATERS...

STATION/POSITION TIME  SKY/WX   TEMP    WIND        PRES    WAVE
                                AIR SEA DIR/SP/G            HT/PER
                 (UTC)          (F)     (DEG/KT/KT) (MB)    (FT/S)
PULASKI SHOAL LI 0300            80     120/ 25/ 28 1017.1S
SAND KEY         0250            80     130/ 22/ 26 1018.3R
LONG KEY         0200            80 81  120/ 19/ 20 1018.0R
MOLASSES REEF    0200            79 79  110/ 15/ 17 1018.4R
FOWEY ROCKS      0200            79 80   90/ 22/ 24 1019.3R
Buoy 42097       0300                                 N/A     5/ 6

$$




USA.gov is the U.S. government's official web portal to all federal, state and local government web resources and services.